Regional Weather Roundup
Issued by NWS Charleston, SC

Current Version | Previous Version | Graphics & Text | Print | Product List | Glossary On
Versions: 1 2 3 4 5 6 7 8 9 10 11 12 13 14 15 16 17 18 19 20 21 22 23 24 25 26 27 28 29 30 31 32 33 34 35 36 37 38 39 40 41 42 43 44 45 46 47 48 49 50
890
ASUS42 KCHS 110113
RWRCHS

REGIONAL WEATHER ROUNDUP
NATIONAL WEATHER SERVICE CHARLESTON SC
800 PM EST WED FEB 10 2016

NOTE: "FAIR" INDICATES FEW OR NO CLOUDS BELOW 12,000 FEET WITH NO
SIGNIFICANT WEATHER AND/OR OBSTRUCTIONS TO VISIBILITY.

NOT ALL STATIONS ARE QUALITY CONTROLLED BY THE NATIONAL
WEATHER SERVICE. USE DATA WITH CAUTION...ESPECIALLY
DEWPOINT OBSERVATIONS.

SCZ027-030-031-034>040-042>050-110200-
...SOUTHEAST SOUTH CAROLINA...

CITY           SKY/WX    TMP DP  RH WIND       PRES   REMARKS
N CHARLESTON   CLEAR     37  12  35 W8        30.12R WCI  31
WATERFRONT PRK   N/A     38  17  42 W7        29.96R WCI  33
MOUNT PLEASANT FAIR      37  14  38 W8        30.12R WCI  31
JOHNS ISLAND   FAIR      37  12  35 W8        30.13R WCI  31
PINOPOLIS        N/A     37  16  41 W14       30.02R WCI  29
MONCKS CORNER  FAIR      32   9  37 CALM      30.11R
SUMMERVILLE    NOT AVBL
BEAUFORT MCAS  CLEAR     37  13  37 W9        30.15R WCI  30
BEAUFORT ARPT  FAIR      37  14  38 W8        30.15R WCI  31
HILTON HEAD IS NOT AVBL
WALTERBORO     CLEAR     37  14  38 W7        30.14R WCI  32
ALLENDALE      FAIR      36  12  38 CALM      30.13R

...SOUTHERN MIDLANDS AND PEE DEE...

CITY           SKY/WX    TMP DP  RH WIND       PRES   REMARKS
GEORGETOWN     NOT AVBL
KINGSTREE      NOT AVBL
ORANGEBURG     CLEAR     33  12  41 W7        30.11R WCI  27
BARNWELL       FAIR      36  14  41 CALM      30.13R
AIKEN          FAIR      32  10  40 SW9       30.12S WCI  24
MANNING        FAIR      34  10  37 W7        30.10R WCI  28
COLUMBIA       CLEAR     34   9  35 SW6       30.09R WCI  29
SUMTER         PTCLDY    33  10  36 W13       30.06R WCI  24
FLORENCE       PTCLDY    33  11  39 W9        30.07R WCI  25
MYRTLE BEACH   CLEAR     36  12  38 W9        30.08R WCI  29
N MYRTLE BEACH CLEAR     35  15  44 W8        30.05R WCI  29

$$

GAZ063-065-086>088-099>101-113>116-118-119-134>141-150-110200-
...SOUTHEAST GEORGIA...

CITY           SKY/WX    TMP DP  RH WIND       PRES   REMARKS
SAVANNAH ARPT  CLEAR     37  14  38 SW8       30.17R WCI  31
HUNTER AAF     CLEAR     37  16  42 W8        30.15R WCI  31
FORT STEWART   CLEAR     36  17  47 SW1       30.16R
STATESBORO     CLEAR     40   8  26 W5        30.15S WCI  37
SYLVANIA       CLEAR     36  21  54 CALM      30.15S
CLAXTON        FAIR      37  21  51 SW5       30.17S WCI  34

...CSRA...CENTRAL AND FAR SOUTHEAST GEORGIA...

CITY           SKY/WX    TMP DP  RH WIND       PRES   REMARKS
THOMSON        PTCLDY    34  15  45 CALM      30.17R
AUGUSTA-BUSH   CLEAR     31  13  47 SW5       30.13R WCI  26
AUGUSTA-DANIEL NOT AVBL
SWAINSBORO     FAIR      36  14  41 SW3       30.15S
VIDALIA        CLEAR     37  18  44 SW5       30.17R WCI  34
EASTMAN        FAIR      38  15  39 W3        30.20S
HAZLEHURST     FAIR      37  22  53 SW3       30.18R
ALMA           CLEAR     36  23  59 SW3       30.19R
WAYCROSS       CLEAR     40  23  51 SW3       30.21R
JESUP          FAIR      37  23  56 W3        30.19F
BAXLEY         FAIR      37  23  56 CALM      30.19R
BRUNSWICK      CLEAR     39  21  48 W5        30.22R WCI  36
SAINT SIMONS   CLEAR     40  18  41 W7        30.21R WCI  35

$$

SCZ027-028-034-036>038-045-046-048>050-GAZ119-141-110200-
...LAKE AND SUPPLEMENTAL COASTAL OBSERVATIONS...

STATION/POSITION TIME  TEMP    WIND        PRES    WAVE   SWELL
                       AIR SEA DIR/SP/G            HT/PER HT/PER/DIR
                 (UTC) (F)     (DEG/KT/KT) (MB)    (FT/S) (FT/S/D)
WINYAH BAY       NOT AVBL
LAKE MURRAY      0000   36     260/ 12/ 21 1017.6R
ACE BASIN NERRS  NOT AVBL
FORT PULASKI     0000   40 50              1021.4R
SAPELO ISLAND    0000   42     260/  8     1022.0R

$$

ANZ835-935-AMZ111-154-330-350-352-354-370-450-454-472-110200-
...C-MAN AND BUOY OBSERVATIONS...

STATION/POSITION TIME  TEMP    WIND        PRES    WAVE   SWELL
                       AIR SEA DIR/SP/G            HT/PER HT/PER/DIR
                 (UTC) (F)     (DEG/KT/KT) (MB)    (FT/S) (FT/S/D)
BUOY 41004       0050   44 64  270/ 25/ 31 1018.6R   8/ 7   2/14
BUOY 41008       0050   44 53  290/ 19/ 23 1022.2R   4/ 5
FOLLY BEACH CMAN 0000   37     270/  6/  9 1019.6R
CAPERS NEARSHORE 0008   41     280/ 17/ 23 1018.5R
FRIPP NEARSHORE  0000   43     270/ 21/ 25 1019.7R


STATION/POSITION TIME  TEMP    WIND        PRES    WAVE   SWELL
                       AIR SEA DIR/SP/G            HT/PER HT/PER/DIR
                 (UTC) (F)     (DEG/KT/KT) (MB)    (FT/S) (FT/S/D)
5E ST. MARYS GA  0021      55                N/A     3/15   2/ 70/15
FRYING PAN BUOY  0000   43 60  280/ 25/ 31 1016.4R
BUOY 41025       0050   44 72  280/ 21/ 27 1013.0R   5/13   3/110/13
CAPE LOOKOUT NC  NOT AVBL
BUOY 41002       0050   54 68  290/ 33/ 43   N/A    18/10
BUOY 41010       0020   61 72              1020.6R
ST AUGUSTINE FL  0000   47 56  300/  7/  9 1023.4R


$$




USA.gov is the U.S. government's official web portal to all federal, state and local government web resources and services.